Regional Weather Roundup
Issued by NWS

Home | Current Version | Previous Version | Graphics & Text | Print | Product List | Glossary On
Versions: 1 2 3 4 5 6 7 8 9 10 11 12 13 14 15 16 17 18 19 20 21 22 23 24 25 26 27 28 29 30 31 32 33 34 35 36 37 38 39 40 41 42 43 44 45 46 47 48 49 50
000
ASUS45 KTFX 302310
RWRMT
MONTANA REGIONAL WEATHER ROUNDUP
NATIONAL WEATHER SERVICE GREAT FALLS MT
500 PM MDT TUE JUN 30 2015

NOTE: "FAIR" INDICATES FEW OR NO CLOUDS BELOW 12000 FEET WITH NO
SIGNIFICANT WEATHER AND/OR OBSTRUCTIONS TO VISIBILITY.

MTZ001>007-043-010000-
WEST OF THE DIVIDE

CITY           SKY/WX    TMP DP  RH WIND       PRES   REMARKS
KALISPELL      PTCLDY    91  43  18 VRB7      29.97F
MISSOULA       MOSUNNY   90  44  20 NW16G23   29.98F
BUTTE          SUNNY     86  40  19 NW17G26   30.11F
MULLAN PASS    SUNNY     75  44  33 VRB7      30.23F
DEER LODGE       N/A     88  48  25 NW16G23   30.09F
EUREKA           N/A     88  50  27 W5        29.99S
HAMILTON         N/A     91  46  21 NW6       29.99F
PLAINS           N/A     93  45  19 W16       29.97F
RONAN            N/A     90  45  21 S3        30.03F
THOMPSON FALLS   N/A     94  43  17 NW8       30.00F HX  90
$$

MTZ008-052>055-010000-
SOUTHWEST MONTANA

CITY           SKY/WX    TMP DP  RH WIND       PRES   REMARKS
BOZEMAN        SUNNY     93  44  18 N13G18    30.01F
DILLON         MOSUNNY   87  49  26 NW13      30.06F
W YELLOWSTONE  MOSUNNY   82  54  36 SW18G24   30.20F
THREE FORKS      N/A     93  42  17 NW8       30.00F
$$

MTZ009-010-012-014-046-048-049-054-010000-
EAST SLOPES AND CENTRAL MONTANA

CITY           SKY/WX    TMP DP  RH WIND       PRES   REMARKS
CUT BANK       MOSUNNY   87  46  24 NW12G18   30.00S
GREAT FALLS    SUNNY     92  39  15 N16G23    29.96S
MALMSTROM AFB  MOSUNNY   91  38  15 W14G24    29.95F
HELENA         SUNNY     94  45  18 W15G23    29.97F HX  90
CONRAD           N/A     88  52  29 NW9       30.01F
$$

MTZ011-013-016-021-045-047-050-051-010000-
NORTH CENTRAL MONTANA

CITY           SKY/WX    TMP DP  RH WIND       PRES   REMARKS
HAVRE          MOSUNNY   89  53  29 NW23G31   29.90S
LEWISTOWN      MOSUNNY   90  42  18 NW16G26   29.98F
CHINOOK          N/A     88  54  31 W20G28    29.87S
FORT BENTON      N/A     91  45  19 NW14G29   29.91S
$$

MTZ017>020-022>027-061-062-010000-
NORTHEAST MONTANA

CITY           SKY/WX    TMP DP  RH WIND       PRES   REMARKS
JORDAN           N/A     92  48  22 N22       29.82S
SIDNEY         PTSUNNY   72  64  78 N28G51    29.90R THUNDER
WOLF POINT     MOSUNNY   88  62  41 E17       29.77F
MALTA            N/A     89  54  30 W15       29.81R
PLENTYWOOD       N/A     70  61  73 E16G22    29.90R
POPLAR           N/A     81  63  54 E17G26    29.80S
SCOBEY           N/A     74  54  49 E14       29.87S
$$

MTZ028>42-056>058-010000-
SOUTHCENTRAL AND SOUTHEAST MONTANA

CITY           SKY/WX    TMP DP  RH WIND       PRES   REMARKS
BAKER          SUNNY     87  59  38 W13       29.83F
BILLINGS       MOSUNNY   95  42  16 NW25G35   29.94S HX  91
LIVINGSTON     MOSUNNY   91  46  21 NW14G22   30.01F
MILES CITY     MOSUNNY   95  50  21 NW21G29   29.81F HX  92
EKALAKA          N/A     86  54  33 W8        29.88F
FORSYTH          N/A     95  43  16 NW16G26   29.82S HX  91
LAUREL           N/A     94  48  20 W17       29.94S HX  90
ROUNDUP          N/A     93  43  17 NW22      29.85S
$$

REGIONAL REPORTS...DAKOTAS

CITY           SKY/WX    TMP DP  RH WIND       PRES   REMARKS
WILLISTON      MOSUNNY   78  57  48 E15G23    29.86F HAZE
MINOT          CLOUDY    69  64  84 CALM      29.90S HAZE
DICKINSON      CLOUDY    75  65  70 SE12      29.85F
BEACH          LGT RAIN  75  72  88 S10       29.84S
CROSBY         LGT RAIN  63  63 100 N7        29.95R VSB 1
BISMARCK       PTSUNNY   72  65  78 E7        29.90F
GRAND FORKS    CLOUDY    74  57  55 S5        29.91S
FARGO          CLOUDY    73  61  65 CALM      29.92R
BUFFALO SD       N/A     84  67  56 S14       29.81F
RAPID CITY     MOSUNNY   83  67  58 NE8       29.90S
$$

REGIONAL REPORTS...WYOMING/IDAHO/WASHINGTON

CITY           SKY/WX    TMP DP  RH WIND       PRES   REMARKS
GILLETTE       MOSUNNY   88  53  30 N16G22    29.97F
SHERIDAN       SUNNY     91  51  25 NW20G25   29.95F
BUFFALO WY       N/A     82  52  35 NW17G25   30.05F
CODY           PTSUNNY   84  54  34 SW3       30.06F
YELLOWSTONE LA   N/A     76  43  30 VRB6      30.32F
IDAHO FALLS    CLOUDY    87  47  24 SE12      30.08F
SALMON         MOSUNNY   95  50  21 N12G20    29.92F HX  92
BOISE          SUNNY    102  40  12 N14       29.92F HX  97
SPOKANE        MOSUNNY   93  44  18 CALM      29.99F
$$

REGIONAL REPORTS...ALBERTA

CITY           SKY/WX    TMP DP  RH WIND       PRES   REMARKS
EDMONTON       MOSUNNY   72  55  56 S5        29.97F
CALGARY        PTSUNNY   72  57  60 NE12      30.03F SMOKE
LETHBRIDGE     MOSUNNY   79  57  47 NE12G23   30.00R
MEDICINE HAT   SUNNY     79  54  41 N15       29.94R SMOKE
MILK RIVER       N/A     81  54  39 N15G22      N/A
$$

REGIONAL REPORTS...SASKATCHEWAN

CITY           SKY/WX    TMP DP  RH WIND       PRES   REMARKS
SWIFT CURRENT  PTSUNNY   73  57  56 E22G28    29.91R HAZE
REGINA         CLOUDY    64  59  82 E3        29.94F SMOKE
SASKATOON        N/A     70  59  68 NW6       29.94S SMOKE
CYPRESS HILLS    N/A     70  52  52 N9G18       N/A
VAL MARIE        N/A     82  52  34 NW16        N/A
ASSINIBOIA       N/A     72  57  60 NE2         N/A
$$



USA.gov is the U.S. government's official web portal to all federal, state and local government web resources and services.